Regional Weather Roundup
Issued by NWS

Home | Current Version | Previous Version | Graphics & Text | Print | Product List | Glossary On
Versions: 1 2 3 4 5 6 7 8 9 10 11 12 13 14 15 16 17 18 19 20 21 22 23 24 25 26 27 28 29 30 31 32 33 34 35 36 37 38 39 40 41 42 43 44 45 46 47 48 49 50
000
ASUS43 KMPX 281910
RWRMN
WEATHER ROUNDUP FOR MINNESOTA
NATIONAL WEATHER SERVICE TWIN CITIES/CHANHASSEN MN
200 PM CDT THU MAY 28 2015


NOTE: "FAIR" INDICATES FEW OR NO CLOUDS BELOW 12,000 FEET WITH NO
SIGNIFICANT WEATHER AND/OR OBSTRUCTIONS TO VISIBILITY. N/A MEANS
CURRENT SKY AND/OR WEATHER CONDITIONS ARE NOT AVAILABLE.

MNZ060>063-068>070-282000-
   Twin Cities Metro

CITY           SKY/WX    TMP DP  RH WIND       PRES   REMARKS
TWIN CITIES    MOSUNNY   82  55  39 S14G21    30.01F
ST PAUL        MOSUNNY   83  56  39 S16G24    30.02F
CRYSTAL        MOSUNNY   84  53  34 S20G26    30.00F
BLAINE         PTSUNNY   84  54  34 S16G23    30.01F
LAKEVILLE      MOSUNNY   81  54  39 S16       30.03F
EDEN PRAIRIE   MOSUNNY   83  55  38 S18G26    30.00F
SOUTH ST PAUL  MOSUNNY   83  52  34 S10       30.01F
LAKE ELMO      FAIR      82  57  42 SW15G22   30.04S
$$
MNZ001>005-007-008-013>017-022>024-027-028-282000-
   Northwest Minnesota

CITY           SKY/WX    TMP DP  RH WIND       PRES   REMARKS
BEMIDJI        CLOUDY    64  56  75 S6        29.91R
HALLOCK        PTSUNNY   72  63  73 S8        29.84F
ROSEAU         PTSUNNY   66  59  77 S10       29.88S
WARROAD        PTSUNNY   64  61  88 SW8       29.89S
THIEF RVR FALL MOSUNNY   70  61  73 SE10G16   29.87F
CROOKSTON      MOSUNNY   79  63  57 SW17G24   29.85F
FOSSTON        MOSUNNY   75  64  69 SW22      29.87F
DETROIT LAKES  MOSUNNY   79  54  41 S22G28    29.90F
MOORHEAD       MOSUNNY   81  57  44 S23G29    29.84F
PARK RAPIDS    MOSUNNY   82  50  32 SW23G31   29.91F
MAHNOMEN       FAIR      79  58  48 S29G35    29.87F
$$
MNZ006-009>011-018-025>026-282000-
   North Central Minnesota

CITY           SKY/WX    TMP DP  RH WIND       PRES   REMARKS
BAUDETTE       CLOUDY    58  55  90 SE9       29.92F
FLAG ISLAND    PTSUNNY   57  55  94 S13       29.88F
INTL FALLS     CLOUDY    59  55  87 VRB5      29.96F
WASKISH        CLOUDY    61  57  88 E7        29.91F
BIG FORK       CLOUDY    73  55  53 S6        29.93F
LONGVILLE      MOSUNNY   81  48  32 SW18G26   29.93S
GRAND RAPIDS   PTSUNNY   75  55  50 SE9       29.95F
CRANE LAKE     CLOUDY    63  55  77 CALM      29.99F
COOK           PTSUNNY   73  54  49 SE10G16   29.97F
WALKER         CLOUDY    79  49  35 S9G26     29.91S
$$
MNZ012-019>021-037-282000-
   Northeast Minnesota

CITY           SKY/WX    TMP DP  RH WIND       PRES   REMARKS
DULUTH         PTSUNNY   52  45  77 E15       30.05F
HIBBING        PTSUNNY   72  51  47 S12       29.98F
EVELETH        PTSUNNY   72  52  49 S12       30.01S
DULUTH HARBOR  CLOUDY    45  43  93 NE17      30.09F
TWO HARBORS    MOSUNNY   61  50  67 E7        30.04F
SILVER BAY     CLOUDY    52  46  82 NE12G17   30.07F
GRAND MARAIS     N/A     48  42  80 E14G20    30.09F
G MARAIS ARPRT PTSUNNY   61  46  59 SE7       30.07F
$$
MNZ029>031-032-039>041-046>048-054>057-064-282000-
   West Central Minnesota

CITY           SKY/WX    TMP DP  RH WIND       PRES   REMARKS
FERGUS FALLS   SUNNY     79  57  47 S24G30    29.90F
WHEATON        SUNNY     79  55  44 S22G30    29.90F
MORRIS         MOSUNNY   81  54  39 S24G31    29.92F
ALEXANDRIA     PTSUNNY   77  52  41 S20G25    29.97F
ELBOW LAKE     PTSUNNY   76  56  48 S29       29.92F
WADENA         MOSUNNY   81  52  36 S22G29    29.93F
GLENWOOD       PTSUNNY   77  52  41 SW21      29.97F
APPLETON       PTSUNNY   79  55  44 S14G22    29.93F
BENSON         CLOUDY    75  54  46 SW13G18   29.95F
ORTONVILLE     MOSUNNY   81  55  41 S17G26    29.91F
MADISON        MOSUNNY   79  57  47 S17       29.93F
WILLMAR          N/A     82  54  36 SW7G25    29.97F
$$
MNZ033>034-036-042>043-049>051-058-059-282000-
   Central Minnesota

CITY           SKY/WX    TMP DP  RH WIND       PRES   REMARKS
ST CLOUD       MOSUNNY   82  52  35 S20G32    29.98F
SAUK CENTRE    FAIR      81  52  36 S23G32    29.96F
PAYNESVILLE    PTSUNNY   78  49  35 SE21      29.98F
AITKIN         MOSUNNY   82  48  30 S18G24    29.94F
PINE RIVER     MOSUNNY   81  54  39 S15G29    29.96F
BRAINERD       MOSUNNY   79  50  36 SW24G32   29.95F
STAPLES        MOSUNNY   79  48  34 SW20G30   29.95F
LONG PRAIRIE   FAIR      79  52  38 S17G24    29.96F
LITTLE FALLS   MOSUNNY   81  45  28 S17G28    29.96F
LITCHFIELD     PTSUNNY   82  52  34 S7        29.99F
BUFFALO        MOSUNNY   82  52  35 S10G20    30.01F
MAPLE LAKE     MOSUNNY   82  54  38 S12G21    30.01S
$$
MNZ037-044-045-052-053-282000-
   East Central Minnesota

CITY           SKY/WX    TMP DP  RH WIND       PRES   REMARKS
PRINCETON      MOSUNNY   84  52  32 S15G25    29.99F
MORA           SUNNY     79  48  34 SW14G22   30.00F
CAMBRIDGE      SUNNY     84  61  45 S14G24    29.99F
RUSH CITY      MOSUNNY   82  51  34 S9G20     30.00F
MOOSE LAKE     MOSUNNY   72  52  49 NE7       29.98F
HINCKLEY       MOCLDY    81  55  41 S13G20    29.99F
CLOQUET        PTSUNNY   57  46  67 E9        30.03F
MCGREGOR       MOSUNNY   81  52  36 S13G22    29.97F
$$
MNZ071>073-080-081-089-090-097-098-282000-
   Southwest Minnesota

CITY           SKY/WX    TMP DP  RH WIND       PRES   REMARKS
MONTEVIDEO     CLOUDY    79  52  38 SW14G21   29.95F
GRANITE FALLS  CLOUDY    82  47  30 S20       29.96F
CANBY          MOSUNNY   79  54  42 S17       29.95F
MARSHALL       PTSUNNY   82  48  30 S22G30    29.95F
REDWOOD FALLS  PTSUNNY   83  49  30 S21G28    29.96F
OLIVIA         PTSUNNY   77  45  31 S16G23    29.97F
PIPESTONE      MOSUNNY   81  48  32 S20G30    29.97F
WINDOM         MOSUNNY   81  48  32 S16G26    30.01F
WORTHINGTON    MOSUNNY   81  48  32 S20G25    30.00F
JACKSON        MOSUNNY   81  50  34 S18G25    30.03F
TRACY          MOSUNNY   83  49  31 S21G26    29.97F
SLAYTON        MOSUNNY   81  45  27 S21G30    30.00F
$$
MNZ065>067-074>077-082>085-091>093-282000-
   South Central Minnesota

CITY           SKY/WX    TMP DP  RH WIND       PRES   REMARKS
MANKATO        MOSUNNY   82  54  36 S16G24    30.02F
NEW ULM        MOSUNNY   81  52  36 S20G28    30.00S
FAIRMONT       MOSUNNY   79  52  38 S22G29    30.02F
GLENCOE        MOSUNNY   83  56  39 S8G23     30.00F
FARIBAULT      MOSUNNY   81  55  41 S14G22    30.05F
OWATONNA       MOSUNNY   81  52  36 S17G24    30.05F
WASECA         MOSUNNY   79  52  38 S21G28    30.06S
ALBERT LEA     MOSUNNY   81  52  36 S18G26    30.06S
$$
MNZ078>079-086>088-094>096-282000-
   Southeast Minnesota

CITY           SKY/WX    TMP DP  RH WIND       PRES   REMARKS
ROCHESTER      MOSUNNY   80  57  45 S18       30.09F
RED WING       MOSUNNY   84  52  32 SW13G18   30.04S
STANTON        MOSUNNY   82  55  39 S12G18    30.03S
DODGE CENTER   MOSUNNY   81  52  36 S20G29    30.07F
WINONA         MOSUNNY   81  55  41 SW9       30.07F
AUSTIN         MOSUNNY   77  57  50 S17       30.08S
PRESTON        PTSUNNY   77  54  44 S14       30.11S
$$
ABBREVIATIONS USED IN REMARKS
   TC - TEMPERATURES IN CELSIUS
  WCI - WIND CHILL INDEX
   HX - HEAT INDEX
  VSB - VISIBILITY
$$



USA.gov is the U.S. government's official web portal to all federal, state and local government web resources and services.